Location: Newark
(43.9494°N, 6.8108°E)
Time: 18:33:50
(UTC+00:00)

Envisat - Pass Details

Date: 21 September 2019
Orbit: 764 x 766 km, 98.1° (Epoch: 22 October)

Event Time Altitude Azimuth Distance (km) Brightness Sun altitude
Rises 18:45:24 0° 202° (SSW) 3,220 6.3 -13.8°
Reaches altitude 10° 18:48:12 10° 218° (SW) 2,299 5.8 -14.2°
Maximum altitude 18:52:04 22° 268° (W) 1,639 5.6 -14.9°
Drops below altitude 10° 18:55:57 10° 318° (NW) 2,312 6.4 -15.6°
Sets 18:58:47 0° 334° (NNW) 3,243 6.9 -16.1°
